FW6591 Weather Reports


Display with metric or nautical units.
time (UTC)temp
F
wind
direction
speed
MPH
gust
MPH
rain 1hr
in
rain 24hr
in
rain mn
in
humidity
%
barometer
mb
20260904154555 54 274 6.0 12.0 0.00 0.13 0.11 71 1032.5
20260904153051 54 184 5.0 12.0 0.00 0.13 0.11 71 1032.6
20260904151601 54 253 6.0 11.0 0.00 0.13 0.11 72 1032.5
20260904150053 54 245 6.0 13.0 0.00 0.13 0.11 72 1032.6
20260904144552 55 272 6.0 12.0 0.00 0.13 0.11 72 1032.5
20260904143104 55 226 4.0 12.0 0.00 0.13 0.11 71 1032.5
20260904141558 55 257 4.0 9.0 0.00 0.13 0.11 73 1032.3
20260904140055 55 276 3.0 13.0 0.00 0.13 0.11 72 1032.3
20260904134552 55 233 5.0 14.0 0.00 0.13 0.11 71 1032.1
20260904133111 55 241 6.0 13.0 0.00 0.13 0.11 71 1031.8
20260904131555 55 174 8.0 15.0 0.00 0.13 0.11 71 1031.7
20260904130055 55 236 4.0 11.0 0.00 0.13 0.11 72 1031.7
20260904124605 55 252 4.0 10.0 0.00 0.13 0.11 72 1031.9
20260904123109 56 291 4.0 9.0 0.00 0.13 0.11 70 1031.8
20260904121549 56 233 3.0 12.0 0.00 0.13 0.11 71 1031.9
20260904120048 56 207 5.0 13.0 0.00 0.13 0.11 72 1032.0
20260904114556 55 224 7.0 14.0 0.00 0.13 0.11 72 1032.1
20260904113101 56 209 5.0 11.0 0.00 0.13 0.11 69 1032.3
20260904111604 56 190 5.0 11.0 0.00 0.13 0.11 70 1032.5
20260904110109 55 277 5.0 16.0 0.00 0.13 0.11 71 1032.7
20260904104601 55 238 7.0 14.0 0.00 0.13 0.11 71 1033.0
20260904103053 55 251 6.0 12.0 0.00 0.13 0.11 72 1033.4
20260904101603 56 337 5.0 13.0 0.00 0.13 0.11 73 1033.2
20260904100101 55 261 8.0 15.0 0.00 0.13 0.11 76 1033.1
20260904094558 55 254 6.0 17.0 0.00 0.13 0.11 77 1033.6
20260904093111 54 223 7.0 21.0 0.00 0.13 0.11 78 1033.4
20260904091548 53 14 8.0 15.0 0.00 0.13 0.11 83 1033.5
20260904090047 52 13 8.0 16.0 0.00 0.13 0.11 84 1033.6
20260904084552 51 14 6.0 18.0 0.00 0.13 0.11 87 1033.4
20260904083052 51 14 7.0 15.0 0.00 0.13 0.11 91 1033.4
20260904081559 50 274 7.0 13.0 0.01 0.13 0.11 93 1033.3
20260904074555 50 241 6.0 18.0 0.02 0.13 0.10 93 1033.4
20260904073049 50 229 7.0 16.0 0.03 0.13 0.10 93 1033.2
20260904071550 50 13 7.0 12.0 0.02 0.12 0.09 93 1033.0
20260904070050 50 205 8.0 16.0 0.02 0.11 0.08 93 1032.8
20260904064553 51 189 4.0 11.0 0.01 0.11 0.07 93 1032.5
20260904063048 51 255 7.0 11.0 0.01 0.10 0.07 93 1032.3
20260904061552 51 257 5.0 13.0 0.01 0.10 0.07 93 1032.1
20260904060048 51 234 6.0 11.0 0.00 0.09 0.06 92 1031.7
20260904054557 51 265 6.0 13.0 0.00 0.09 0.06 92 1031.5
20260904053101 51 17 9.0 16.0 0.00 0.08 0.05 92 1031.2
20260904051558 51 14 6.0 12.0 0.00 0.08 0.05 92 1031.1
20260904050056 52 13 5.0 26.0 0.00 0.08 0.05 90 1030.7
20260904044550 52 15 7.0 13.0 0.00 0.08 0.05 91 1030.1
20260904043049 52 17 6.0 16.0 0.00 0.08 0.05 91 1030.0
20260904041559 52 15 5.0 12.0 0.00 0.08 0.05 91 1029.8
20260904040059 52 13 6.0 13.0 0.00 0.08 0.05 91 1029.4
20260904034557 52 15 7.0 19.0 0.00 0.08 0.05 92 1029.4
20260904033048 52 15 6.0 17.0 0.00 0.08 0.05 92 1029.2
20260904031549 52 13 5.0 19.0 0.00 0.08 0.05 92 1028.9
20260904030059 52 15 7.0 15.0 0.00 0.08 0.05 92 1028.5
20260904024549 52 15 7.0 13.0 0.00 0.08 0.05 93 1028.3
20260904023054 52 18 7.0 12.0 0.01 0.08 0.05 93 1028.2
20260904021600 52 17 6.0 16.0 0.00 0.07 0.04 93 1027.9
20260904020048 52 186 5.0 10.0 0.00 0.07 0.04 93 1027.4
20260904014553 52 80 5.0 11.0 0.01 0.07 0.04 93 1027.4
20260904013047 52 233 7.0 14.0 0.01 0.07 0.03 93 1027.5
20260904011611 52 234 6.0 12.0 0.01 0.07 0.03 93 1027.5
20260904010108 52 222 5.0 9.0 0.03 0.07 0.03 93 1027.1
20260904004550 53 240 5.0 13.0 0.03 0.06 0.03 93 1027.2
20260904003048 53 212 6.0 18.0 0.02 0.05 0.02 93 1027.0
20260904001547 53 249 6.0 12.0 0.02 0.05 0.02 93 1026.9
20260904000100 53 235 3.0 9.0 0.00 0.03 0.00 93 1026.8
20260903234604 53 227 5.0 10.0 0.00 0.03 0.00 92 1026.9
20260903233057 54 17 5.0 10.0 0.00 0.03 0.00 89 1026.7
20260903231558 54 16 3.0 8.0 0.00 0.03 0.00 88 1027.1
20260903230057 54 15 3.0 11.0 0.00 0.03 0.00 88 1027.1
20260903224602 54 15 4.0 11.0 0.00 0.03 0.00 88 1026.3
20260903223045 54 15 5.0 11.0 0.00 0.03 0.00 87 1026.6
20260903221556 54 17 6.0 11.0 0.00 0.03 0.00 88 1026.0
20260903220124 54 15 5.0 12.0 0.00 0.03 0.00 88 1025.7
20260903214550 54 15 4.0 9.0 0.00 0.03 0.03 89 1025.5
20260903213104 54 14 3.0 5.0 0.00 0.03 0.03 89 1026.0
20260903211601 54 15 4.0 12.0 0.00 0.03 0.03 88 1025.1
20260903210105 55 15 5.0 10.0 0.00 0.03 0.03 88 1024.7
20260903204552 55 15 6.0 16.0 0.00 0.03 0.03 87 1025.3
20260903203109 55 15 5.0 13.0 0.00 0.03 0.03 88 1025.0
20260903201553 55 14 5.0 12.0 0.00 0.03 0.03 89 1024.9
20260903200050 54 17 8.0 14.0 0.00 0.03 0.03 90 1024.1
20260903194554 54 15 5.0 10.0 0.00 0.03 0.03 91 1023.1
20260903193100 54 14 6.0 12.0 0.00 0.03 0.03 90 1023.0
20260903191554 55 15 4.0 9.0 0.00 0.03 0.03 88 1023.5
20260903190058 55 192 3.0 10.0 0.00 0.03 0.03 89 1023.4
20260903184557 55 217 5.0 16.0 0.00 0.03 0.03 88 1022.8
20260903183055 55 254 4.0 11.0 0.00 0.03 0.03 89 1022.7
20260903181549 54 230 6.0 12.0 0.00 0.03 0.03 90 1022.5
20260903180054 55 186 6.0 11.0 0.00 0.03 0.03 89 1022.1
20260903174558 55 118 5.0 10.0 0.00 0.03 0.03 89 1021.8
20260903173055 55 17 6.0 12.0 0.00 0.03 0.03 90 1021.6
20260903171601 56 15 7.0 16.0 0.01 0.03 0.03 89 1021.0
20260903170046 56 13 8.0 16.0 0.01 0.03 0.03 89 1020.6
20260903164602 56 13 8.0 14.0 0.02 0.03 0.03 90 1020.3
20260903163101 56 15 7.0 12.0 0.02 0.03 0.03 91 1019.7
20260903161550 57 246 5.0 11.0 0.00 0.01 0.01 93 1019.3
20260903160051 57 202 5.0 11.0 0.00 0.01 0.01 92 1018.8